sat.trackr.live / text

‹ back to catalog

STARLINK-35600

NORAD 66510 · 2025-263AB

PAYLOAD ACTIVE UNKNOWN

§ Identity

Operator
Country
US
Launch date
2025-11-15
Launch site
AFETR
Launch vehicle
Mass (kg)
RCS (m²)

Purposes: comms

External: N2YO · Heavens-Above · Gunter

§ Orbital elements

Epoch: 2026-05-24T20:33:23.076576Z

Period
94.27 min
Inclination
42.9998°
Eccentricity
0.0001873
Mean motion
15.27601100 rev/d
Perigee alt
481.7 km
Apogee alt
484.3 km
Semi-major
6,861.1 km
B*
7.2401e-4
RAAN
280.8916°
Arg perigee
264.1539°
Mean anomaly
95.9099°
Rev number
3,054

§ Raw data

STARLINK-356001 66510U 25263AB  26144.85651709  .00019727  00000+0  72401-3 0  99962 66510  42.9998 280.8916 0001873 264.1539  95.9099 15.27601100 30540

JSON: /api/v1/satellites/66510 · /tle

For live sub-satellite position, see the globe view (requires WebGL).

§ Visibility from observer

Set your observer location to see the next 7 days of passes ≥ 10°. The values pass through the URL so the page stays shareable.

No JS? Fill the form by hand. The geolocation button needs JavaScript.